Flag for U.S.A. Weather past 2 weeks in Shreveport, Louisiana, U.S.A.

Now
75 °F

Passing clouds.


Feels Like: 77 °F
Forecast: 70 / 92 °F
Wind: 3 mph from South

Location: Shreveport Regional Airport

Current Time: Aug 30, 2015 at 5:44:15 AM

Latest Report: Aug 30, 2015 at 4:56 AM


Visibility: 10 mi

Pressure: 29.97 "Hg

Humidity: 71%

Dew point: 65 °F

Location of ShreveportLocation

Historic Weather in Shreveport — Graph

°F

Shreveport temperature yesterday

Maximum temperature yesterday: 93 °F (at 2:56 PM)
Minimum temperature yesterday: 69 °F (at 12:56 AM)
Average temperature yesterday: 82 °F

Past Weeks' High & Low Weather Summary

 TemperatureHumidityPressure
High97 °F (Aug 16, 1:56 PM)100% (Aug 18, 4:56 AM)30.15 "Hg (Aug 18, 4:56 AM)
Low63 °F (Aug 28, 6:56 AM)25% (Aug 15, 5:56 PM)29.76 "Hg (Aug 18, 6:56 PM)
Average81 °F69%29.98 "Hg
* Reported Aug 15 3:56 AM — Aug 30 3:56 AM, Shreveport, Weather by CustomWeather, © 2015

Note: Actual official high and low records may vary slightly from our data, if they occured in-between our weather recording intervals... More about our weather records

Advertising

Shreveport weather history for previous 24 hours

 ConditionsComfort  
Time TempWeatherWind HumidityBarometerVisibility
3:56 AM
Sun, Aug 30
76 °FPassing clouds.5 mph69%29.96 "Hg10 mi
2:56 AM73 °FPassing clouds.5 mph81%29.95 "Hg10 mi
1:56 AM74 °FPartly cloudy.No wind82%29.97 "Hg10 mi
12:56 AM76 °FPassing clouds.No wind77%29.98 "Hg10 mi
11:56 PM
Sat, Aug 29
78 °FPassing clouds.No wind74%29.98 "Hg10 mi
10:56 PM78 °FPassing clouds.No wind74%29.98 "Hg10 mi
9:56 PM82 °FPartly cloudy.No wind56%29.97 "Hg10 mi
8:56 PM84 °FPartly cloudy.No wind57%29.96 "Hg10 mi
7:56 PM86 °FPartly sunny.3 mph46%29.94 "Hg10 mi
6:56 PM89 °FBroken clouds.3 mph39%29.94 "Hg10 mi
5:56 PM92 °FBroken clouds.6 mph36%29.94 "Hg10 mi
4:56 PM93 °FBroken clouds.7 mph37%29.94 "Hg10 mi
3:56 PM93 °FScattered clouds.5 mph36%29.96 "Hg10 mi
2:56 PM93 °FBroken clouds.3 mph40%29.99 "Hg10 mi
1:56 PM91 °FBroken clouds.5 mph42%30.01 "Hg10 mi
12:56 PM90 °FBroken clouds.No wind43%30.03 "Hg10 mi
11:56 AM87 °FBroken clouds.3 mph48%30.04 "Hg10 mi
10:56 AM86 °FBroken clouds.8 mph59%30.05 "Hg10 mi
9:56 AM84 °FScattered clouds.12 mph61%30.04 "Hg10 mi
8:56 AM80 °FScattered clouds.7 mph69%30.03 "Hg10 mi
7:56 AM75 °FPartly sunny.6 mph79%30.02 "Hg10 mi
6:56 AM73 °FPassing clouds.7 mph81%30.01 "Hg10 mi
5:56 AM71 °FPassing clouds.7 mph81%30.00 "Hg10 mi
Weather by CustomWeather, © 2015

See weather overviewHow to use our weather pages